Location: Bednik
(45.3500°N, 16.3833°E)
Time: 15:36:34
(UTC+00:00)

ATLAS 3B R/B - Pass Details

Date: 08 August 2020
Orbit: 1016 x 1179 km, 63.8° (Epoch: 17 September)

Event Time Altitude Azimuth Distance (km) Brightness Sun altitude
Exits shadow 22:21:15 74° 201° (SSW) 1,059 2.4 -28.2°
Maximum altitude 22:21:55 86° 127° (SE) 1,026 2.4 -28.2°
Drops below altitude 10° 22:28:35 10° 38° (NE) 2,834 5.4 -28.4°
Sets 22:31:13 0° 38° (NE) 3,805 6.2 -28.5°
